CW3833 Weather Reports


time (UTC)temp
C
wind
direction
speed
KPH
gust
KPH
rain 1hr
cm
rain 24hr
cm
rain mn
cm
humidity
%
barometer
mb
20260504044601 10 249 8.0 19.3 0.00 0.00 0.00 56 1008.6
20260504043058 9 202 4.8 14.5 0.00 0.00 0.00 57 1008.6
20260504041605 10 205 4.8 14.5 0.00 0.00 0.00 56 1008.6
20260504034555 11 200 8.0 24.1 0.00 0.00 0.00 54 1008.7
20260504033055 11 225 8.0 22.5 0.00 0.00 0.00 54 1008.7
20260504031558 11 233 9.7 20.9 0.00 0.00 0.00 55 1008.6
20260504030058 10 269 8.0 25.7 0.00 0.00 0.00 56 1008.6
20260504024615 11 225 9.7 24.1 0.00 0.00 0.00 55 1008.6
20260504023055 11 205 12.9 29.0 0.00 0.00 0.00 55 1008.6
20260504021557 11 258 9.7 33.8 0.00 0.00 0.00 54 1008.9
20260504020058 11 259 12.9 48.3 0.00 0.00 0.00 53 1008.9
20260504014605 11 213 8.0 24.1 0.00 0.00 0.00 53 1009.0
20260504013057 11 294 9.7 25.7 0.00 0.00 0.00 53 1008.8
20260504011557 11 229 12.9 35.4 0.00 0.00 0.00 53 1009.0
20260504010104 11 234 8.0 25.7 0.00 0.00 0.00 53 1009.2
20260504004601 11 248 14.5 30.6 0.00 0.00 0.00 53 1009.2
20260504003057 11 232 11.3 38.6 0.00 0.00 0.00 51 1009.3
20260504001556 11 252 12.9 30.6 0.00 0.00 0.00 49 1008.9
20260504000135 11 223 11.3 29.0 0.00 0.00 0.00 49 1008.9
20260503234601 11 234 6.4 43.5 0.00 0.00 0.00 50 1008.9
20260503233055 11 252 12.9 33.8 0.00 0.00 0.00 48 1008.9
20260503231555 12 205 17.7 37.0 0.00 0.00 0.00 47 1008.6
20260503230055 12 278 14.5 37.0 0.00 0.00 0.00 46 1008.6
20260503224558 12 214 9.7 24.1 0.00 0.00 0.00 43 1008.4
20260503223057 12 227 12.9 35.4 0.00 0.00 0.00 41 1008.3
20260503221559 12 263 11.3 30.6 0.00 0.00 0.00 43 1008.5
20260503220057 12 305 11.3 27.4 0.00 0.00 0.00 43 1008.2
20260503214619 12 248 9.7 29.0 0.00 0.00 0.00 43 1008.6
20260503213111 13 302 12.9 30.6 0.00 0.00 0.00 39 1008.3
20260503211619 13 248 9.7 25.7 0.00 0.00 0.00 41 1008.3
20260503210101 13 270 9.7 24.1 0.00 0.00 0.00 43 1008.3
20260503204559 12 210 6.4 17.7 0.00 0.00 0.00 44 1008.4
20260503203110 12 207 6.4 17.7 0.00 0.00 0.00 45 1008.8
20260503201557 12 238 8.0 19.3 0.00 0.00 0.00 45 1009.0
20260503200058 11 229 4.8 16.1 0.00 0.00 0.00 46 1009.3
20260503194559 11 229 9.7 22.5 0.00 0.00 0.00 47 1009.5
20260503193057 12 234 8.0 22.5 0.00 0.00 0.00 46 1009.7
20260503191604 11 273 9.7 17.7 0.00 0.00 0.00 48 1009.9
20260503190059 11 230 11.3 30.6 0.00 0.00 0.00 45 1010.0
20260503184557 11 233 11.3 40.2 0.00 0.00 0.00 47 1010.2
20260503180117 10 202 8.0 29.0 0.00 0.00 0.00 45 1010.6
20260503174559 10 184 11.3 24.1 0.00 0.00 0.00 42 1010.8
20260503173101 11 335 8.0 24.1 0.00 0.00 0.00 46 1010.9
20260503171600 11 325 8.0 29.0 0.00 0.00 0.00 46 1010.9
20260503150103 7 253 6.4 17.7 0.00 0.00 0.00 60 1012.1
20260503100103 0 224 1.6 8.0 0.00 0.00 0.00 82 1012.1
20260503081556 1 236 1.6 6.4 0.00 0.00 0.00 81 1012.2
20260503071605 1 227 0.0 4.8 0.00 0.00 0.00 81 1012.3
20260503070106 1 0 0.0 4.8 0.00 0.00 0.00 80 1012.4
20260503060110 2 261 3.2 12.9 0.00 0.00 0.00 79 1012.5
20260503054611 2 256 1.6 8.0 0.00 0.00 0.00 79 1012.6
20260503053100 2 280 1.6 9.7 0.00 0.00 0.00 79 1012.7
20260503051556 2 266 1.6 9.7 0.00 0.00 0.00 79 1012.9